EW8215 Weather Reports


Display with metric or nautical units.
time (UTC)temp
F
wind
direction
speed
MPH
gust
MPH
rain 1hr
in
rain 24hr
in
rain mn
in
humidity
%
barometer
mb
20260509082726 71 146 0.0 0.0 0.00 0.00 0.00 97 1011.0
20260509082223 71 155 0.0 0.0 0.00 0.00 0.00 97 1011.2
20260509081720 71 147 0.0 0.0 0.00 0.00 0.00 97 1011.0
20260509081218 71 148 0.0 0.0 0.00 0.00 0.00 97 1011.1
20260509080716 71 145 0.0 0.0 0.00 0.00 0.00 97 1011.1
20260509080213 71 150 0.0 0.0 0.00 0.00 0.00 97 1011.5
20260509075711 71 143 0.0 0.0 0.00 0.00 0.00 97 1011.4
20260509075209 71 145 0.0 0.0 0.00 0.00 0.00 97 1011.3
20260509074705 71 125 0.0 0.0 0.00 0.00 0.00 97 1011.3
20260509074202 71 147 0.0 0.0 0.00 0.00 0.00 97 1011.7
20260509073659 71 153 0.0 0.0 0.00 0.00 0.00 97 1011.6
20260509073155 71 154 0.0 0.0 0.00 0.00 0.00 97 1011.7
20260509072652 71 154 0.0 0.0 0.00 0.00 0.00 97 1011.6
20260509072148 71 155 0.0 0.0 0.00 0.00 0.00 97 1011.6
20260509071645 71 153 0.0 0.0 0.00 0.00 0.00 97 1011.3
20260509071142 71 153 0.0 0.0 0.00 0.00 0.00 97 1011.2
20260509070639 71 158 0.0 0.0 0.00 0.00 0.00 97 1011.3
20260509070136 70 159 0.0 0.0 0.00 0.00 0.00 97 1011.4
20260509065631 70 156 0.0 0.0 0.00 0.00 0.00 97 1011.4
20260509065128 70 156 0.0 0.0 0.00 0.00 0.00 97 1011.8
20260509064625 70 155 0.0 0.0 0.00 0.00 0.00 97 1011.6
20260509064123 70 156 0.0 0.0 0.00 0.00 0.00 97 1011.5
20260509063620 69 142 0.0 0.0 0.00 0.00 0.00 97 1011.5
20260509063116 69 142 0.0 0.0 0.00 0.00 0.00 97 1011.4
20260509062613 69 140 0.0 0.0 0.00 0.00 0.00 97 1011.2
20260509062110 69 140 0.0 0.0 0.00 0.00 0.00 97 1011.2
20260509061607 69 141 0.0 0.0 0.00 0.00 0.00 97 1011.4
20260509061104 70 141 0.0 0.0 0.00 0.00 0.00 97 1011.3
20260509060602 70 141 0.0 0.0 0.00 0.00 0.00 97 1011.3
20260509060058 70 140 0.0 0.0 0.00 0.00 0.00 97 1010.9
20260509055553 69 141 0.0 0.0 0.00 0.00 0.00 97 1011.1
20260509055049 70 141 0.0 0.0 0.00 0.00 0.00 97 1011.0
20260509054546 69 141 0.0 0.0 0.00 0.00 0.00 97 1010.7
20260509054044 69 141 0.0 0.0 0.00 0.00 0.00 96 1010.4
20260509053543 69 141 0.0 0.0 0.00 0.00 0.00 96 1010.4
20260509053039 70 141 0.0 0.0 0.00 0.00 0.00 96 1010.4
20260509052537 70 140 0.0 0.0 0.00 0.00 0.00 96 1010.5
20260509052035 71 144 0.0 0.0 0.00 0.00 0.00 96 1010.5
20260509051533 71 132 2.0 3.0 0.00 0.00 0.00 96 1010.7
20260509051030 71 144 0.0 2.0 0.00 0.00 0.00 95 1010.4
20260509050526 71 145 1.0 2.0 0.00 0.00 0.00 95 1010.7
20260509050017 71 141 2.0 2.0 0.00 0.00 0.00 95 1010.4
20260509045515 71 141 1.0 2.0 0.00 0.00 0.00 95 1010.4
20260509045011 71 139 1.0 2.0 0.00 0.00 0.00 95 1010.8
20260509044509 71 129 3.0 3.0 0.00 0.00 0.00 94 1010.5
20260509044006 71 144 0.0 0.0 0.00 0.00 0.00 94 1010.3
20260509043502 71 161 0.0 0.0 0.00 0.00 0.00 94 1010.3
20260509042957 71 160 0.0 0.0 0.00 0.00 0.00 94 1010.3
20260509042454 71 160 0.0 0.0 0.00 0.00 0.00 94 1010.4
20260509041950 72 149 0.0 0.0 0.00 0.00 0.00 94 1010.3
20260509041447 72 155 0.0 0.0 0.00 0.00 0.00 94 1010.3
20260509040945 72 157 0.0 2.0 0.00 0.00 0.00 93 1010.2
20260509040443 72 161 0.0 0.0 0.00 0.00 0.00 93 1010.2
20260509035939 72 156 0.0 0.0 0.00 0.00 0.00 93 1010.3
20260509035436 72 156 0.0 2.0 0.00 0.00 0.00 93 1010.0
20260509034933 72 153 1.0 2.0 0.00 0.00 0.00 93 1010.1
20260509034431 72 160 1.0 2.0 0.00 0.00 0.00 92 1010.1
20260509033928 72 161 1.0 2.0 0.00 0.00 0.00 92 1009.8
20260509033425 73 154 0.0 2.0 0.00 0.00 0.00 92 1009.9
20260509032921 73 160 1.0 2.0 0.00 0.00 0.00 91 1009.8
20260509032419 73 159 3.0 3.0 0.00 0.00 0.00 91 1010.0
20260509031917 73 159 3.0 5.0 0.00 0.00 0.00 90 1009.8
20260509031414 73 156 2.0 3.0 0.00 0.00 0.00 90 1010.0
20260509030911 74 156 4.0 5.0 0.00 0.00 0.00 90 1009.9
20260509030409 74 170 2.0 2.0 0.00 0.00 0.00 90 1009.8
20260509025906 74 159 3.0 5.0 0.00 0.00 0.00 89 1009.7
20260509025401 74 172 2.0 2.0 0.00 0.00 0.00 89 1009.6
20260509024856 74 157 3.0 3.0 0.00 0.00 0.00 89 1009.6
20260509024353 74 159 3.0 3.0 0.00 0.00 0.00 88 1009.5
20260509023850 74 190 4.0 5.0 0.00 0.00 0.00 88 1009.2
20260509023348 75 150 0.0 2.0 0.00 0.00 0.00 88 1009.3
20260509022844 75 149 3.0 3.0 0.00 0.00 0.00 88 1009.3
20260509022341 75 191 6.0 9.0 0.00 0.00 0.00 88 1009.3
20260509021838 75 147 5.0 7.0 0.00 0.00 0.00 88 1009.1
20260509021330 75 144 2.0 3.0 0.00 0.00 0.00 88 1009.1
20260509020828 75 156 6.0 7.0 0.00 0.00 0.00 88 1009.2
20260509020325 75 182 4.0 5.0 0.00 0.00 0.00 88 1009.0
20260509015822 75 160 1.0 2.0 0.00 0.00 0.00 88 1009.2
20260509015320 75 120 0.0 0.0 0.00 0.00 0.00 88 1009.3
20260509014816 75 142 0.0 0.0 0.00 0.00 0.00 88 1009.2
20260509014314 74 146 0.0 0.0 0.00 0.00 0.00 88 1009.2
20260509013810 74 148 0.0 0.0 0.00 0.00 0.00 89 1009.2
20260509013307 74 145 0.0 0.0 0.00 0.00 0.00 89 1009.2
20260509012803 74 138 0.0 0.0 0.00 0.00 0.00 90 1009.2
20260509012259 74 139 0.0 0.0 0.00 0.00 0.00 89 1009.0
20260509011757 74 139 0.0 0.0 0.00 0.00 0.00 89 1009.0
20260509011254 74 143 0.0 0.0 0.00 0.00 0.00 89 1009.3
20260509010752 74 136 3.0 3.0 0.00 0.00 0.00 88 1009.1
20260509010248 75 136 3.0 3.0 0.00 0.00 0.00 88 1009.1
20260509005746 75 137 3.0 3.0 0.00 0.00 0.00 88 1009.2
20260509005243 75 144 2.0 3.0 0.00 0.00 0.00 87 1009.3
20260509004737 75 130 2.0 3.0 0.00 0.00 0.00 87 1009.1
20260509004235 75 137 4.0 5.0 0.00 0.00 0.00 86 1009.1
20260509003733 75 147 2.0 2.0 0.00 0.00 0.00 86 1009.1
20260509003230 75 136 3.0 3.0 0.00 0.00 0.00 86 1009.2
20260509002727 75 124 4.0 5.0 0.00 0.00 0.00 86 1009.2
20260509002225 75 131 0.0 0.0 0.00 0.00 0.00 85 1009.4
20260509001722 76 140 0.0 0.0 0.00 0.00 0.00 84 1009.3
20260509001218 76 140 0.0 0.0 0.00 0.00 0.00 84 1009.5
20260509000716 76 140 0.0 0.0 0.00 0.00 0.00 84 1009.3
20260509000213 76 125 3.0 3.0 0.00 0.00 0.00 83 1009.5
20260508235710 76 135 3.0 3.0 0.00 0.00 0.00 83 1009.5
20260508235206 76 130 4.0 5.0 0.00 0.00 0.00 82 1009.3
20260508234704 77 142 2.0 3.0 0.00 0.00 0.00 82 1009.4
20260508234200 77 138 2.0 3.0 0.00 0.00 0.00 81 1009.4
20260508233659 77 135 3.0 3.0 0.00 0.00 0.00 81 1009.7
20260508233157 77 141 0.0 0.0 0.00 0.00 0.00 81 1009.5
20260508232654 78 140 0.0 0.0 0.00 0.00 0.00 81 1009.4
20260508232150 77 142 1.0 2.0 0.00 0.00 0.00 80 1009.6
20260508231649 77 142 0.0 0.0 0.00 0.00 0.00 81 1009.6
20260508231145 77 144 0.0 0.0 0.00 0.00 0.00 80 1009.6
20260508230642 77 141 0.0 0.0 0.00 0.00 0.00 79 1009.7
20260508230138 77 142 0.0 0.0 0.00 0.00 0.00 81 1009.7
20260508225636 77 147 0.0 0.0 0.00 0.00 0.00 81 1009.6
20260508225132 77 144 2.0 3.0 0.00 0.00 0.00 80 1009.6
20260508224630 77 135 4.0 5.0 0.00 0.00 0.00 79 1009.6
20260508224128 77 133 3.0 3.0 0.00 0.00 0.00 79 1009.7
20260508223625 77 151 2.0 2.0 0.00 0.00 0.00 79 1009.5
20260508223122 77 149 0.0 2.0 0.00 0.00 0.00 80 1009.6
20260508222619 77 142 2.0 2.0 0.00 0.00 0.00 80 1009.7
20260508222116 78 126 5.0 7.0 0.00 0.00 0.00 77 1009.8
20260508221612 77 156 0.0 2.0 0.00 0.00 0.00 80 1009.7
20260508221108 77 164 2.0 3.0 0.00 0.00 0.00 79 1009.7
20260508220605 78 146 0.0 2.0 0.00 0.00 0.00 81 1009.6
20260508215558 77 129 6.0 7.0 0.00 0.00 0.00 78 1009.7
20260508215055 77 122 2.0 5.0 0.00 0.00 0.00 79 1009.8
20260508214553 77 101 3.0 3.0 0.00 0.00 0.00 81 1009.7
20260508214049 78 136 2.0 5.0 0.00 0.00 0.00 78 1010.0
20260508213546 77 55 3.0 3.0 0.00 0.00 0.00 80 1009.6
20260508213042 78 148 0.0 0.0 0.00 0.00 0.00 81 1009.9
20260508212539 78 153 0.0 0.0 0.00 0.00 0.00 80 1010.0
20260508212035 78 117 4.0 5.0 0.00 0.00 0.00 79 1010.1
20260508211531 76 160 2.0 3.0 0.00 0.00 0.00 81 1010.1
20260508211027 76 120 5.0 5.0 0.00 0.00 0.00 81 1010.3
20260508210524 76 158 0.0 0.0 0.00 0.00 0.00 81 1010.5
20260508210022 77 150 0.0 2.0 0.00 0.00 0.00 81 1010.8
20260508205518 76 151 0.0 0.0 0.00 0.00 0.00 81 1010.7
20260508205014 75 143 2.0 3.0 0.00 0.00 0.00 82 1011.0
20260508204512 76 128 7.0 7.0 0.00 0.00 0.00 81 1011.0
20260508204007 76 129 4.0 5.0 0.00 0.00 0.00 79 1010.9
20260508203503 75 126 1.0 2.0 0.00 0.00 0.00 83 1011.0
20260508202959 75 122 2.0 3.0 0.00 0.00 0.00 82 1011.0
20260508202456 75 138 2.0 3.0 0.00 0.00 0.00 83 1011.3
20260508201953 75 54 1.0 3.0 0.00 0.00 0.00 83 1011.3
20260508201450 74 127 0.0 2.0 0.00 0.00 0.00 84 1011.6
20260508200947 74 167 2.0 3.0 0.00 0.00 0.00 84 1011.2
20260508200444 73 145 0.0 2.0 0.00 0.00 0.00 85 1011.7
20260508195938 73 142 1.0 2.0 0.00 0.00 0.00 85 1011.5
20260508195436 74 138 1.0 2.0 0.00 0.00 0.00 84 1011.8
20260508194932 73 134 2.0 3.0 0.00 0.00 0.00 84 1011.6
20260508194429 73 130 5.0 5.0 0.00 0.00 0.00 84 1011.7
20260508193926 73 148 0.0 0.0 0.00 0.00 0.00 86 1011.8
20260508193423 73 133 1.0 2.0 0.00 0.00 0.00 86 1011.8
20260508192919 73 142 0.0 0.0 0.00 0.00 0.00 86 1011.8
20260508192416 73 145 1.0 2.0 0.00 0.00 0.00 86 1011.8
20260508191913 73 143 2.0 3.0 0.00 0.00 0.00 85 1012.1
20260508191411 73 141 0.0 0.0 0.00 0.00 0.00 85 1012.0
20260508190902 73 149 1.0 2.0 0.00 0.00 0.00 85 1012.1
20260508190359 72 80 5.0 7.0 0.00 0.00 0.00 85 1012.2
20260508185854 72 116 0.0 0.0 0.00 0.00 0.00 86 1012.2
20260508185352 72 123 1.0 2.0 0.00 0.00 0.00 85 1012.1
20260508184849 72 132 0.0 0.0 0.00 0.00 0.00 86 1012.3
20260508184347 72 134 1.0 2.0 0.00 0.00 0.00 86 1012.3
20260508183843 72 108 0.0 2.0 0.00 0.00 0.00 85 1012.5
20260508183340 72 135 2.0 2.0 0.00 0.00 0.00 86 1012.4
20260508182836 72 111 2.0 3.0 0.00 0.00 0.00 85 1012.4
20260508182333 72 133 0.0 0.0 0.00 0.00 0.00 86 1012.5
20260508181828 71 142 1.0 2.0 0.00 0.00 0.00 86 1012.7
20260508181325 72 135 0.0 0.0 0.00 0.00 0.00 84 1012.7
20260508180822 71 124 3.0 3.0 0.00 0.00 0.00 85 1012.8
20260508180319 71 108 0.0 2.0 0.00 0.00 0.00 86 1012.7
20260508175815 70 92 2.0 3.0 0.00 0.00 0.00 85 1013.1
20260508175312 71 141 2.0 3.0 0.00 0.00 0.00 85 1013.1
20260508174810 70 108 3.0 3.0 0.00 0.00 0.00 85 1013.1
20260508174307 70 135 1.0 2.0 0.00 0.00 0.00 85 1012.9
20260508173803 69 141 0.0 0.0 0.00 0.00 0.00 87 1013.1
20260508173300 69 108 2.0 3.0 0.00 0.00 0.00 86 1013.3
20260508172756 69 145 0.0 0.0 0.00 0.00 0.00 86 1013.2
20260508172254 69 326 4.0 5.0 0.00 0.00 0.00 85 1013.2
20260508171750 70 150 1.0 2.0 0.00 0.00 0.00 86 1013.1
20260508171246 69 116 2.0 3.0 0.00 0.00 0.00 86 1013.3
20260508170743 69 138 1.0 2.0 0.00 0.00 0.00 86 1013.3
20260508170241 69 117 0.0 2.0 0.00 0.00 0.00 86 1013.5
20260508165738 69 147 2.0 3.0 0.00 0.00 0.00 85 1013.5
20260508165235 69 149 0.0 0.0 0.00 0.00 0.00 86 1013.4
20260508164731 69 147 3.0 3.0 0.00 0.00 0.00 85 1013.8
20260508164228 68 144 3.0 3.0 0.00 0.00 0.00 86 1013.8
20260508163726 69 126 4.0 5.0 0.00 0.00 0.00 84 1013.9
20260508163223 69 144 3.0 3.0 0.00 0.00 0.00 84 1013.7
20260508162719 69 156 0.0 2.0 0.00 0.00 0.00 85 1013.9
20260508162216 68 149 2.0 2.0 0.00 0.00 0.00 86 1013.8
20260508161713 68 152 0.0 2.0 0.00 0.00 0.00 87 1013.7
20260508161210 68 142 4.0 5.0 0.00 0.00 0.00 86 1013.6
20260508160708 67 111 4.0 7.0 0.00 0.00 0.00 87 1013.9
20260508160206 67 143 5.0 7.0 0.00 0.00 0.00 88 1013.9
20260508155702 67 115 4.0 5.0 0.00 0.00 0.00 88 1014.0
20260508155159 67 117 5.0 5.0 0.00 0.00 0.00 88 1014.0
20260508154657 66 140 2.0 3.0 0.00 0.00 0.00 88 1014.3
20260508154153 67 138 4.0 5.0 0.00 0.00 0.00 87 1014.4
20260508153650 67 122 3.0 5.0 0.00 0.00 0.00 88 1014.3
20260508153147 67 121 5.0 5.0 0.00 0.00 0.00 87 1014.1
20260508152644 67 124 2.0 3.0 0.00 0.00 0.00 87 1014.0
20260508152139 66 145 1.0 2.0 0.00 0.00 0.00 88 1014.1
20260508151636 66 133 0.0 2.0 0.00 0.00 0.00 88 1014.1
20260508151132 66 126 4.0 5.0 0.00 0.00 0.00 87 1014.2
20260508150630 66 132 3.0 5.0 0.00 0.00 0.00 87 1014.2
20260508150126 66 130 4.0 5.0 0.00 0.00 0.00 86 1014.1
20260508145622 66 147 4.0 5.0 0.00 0.00 0.00 86 1014.4
20260508145119 66 125 4.0 7.0 0.00 0.00 0.00 87 1014.2
20260508144617 66 142 2.0 3.0 0.00 0.00 0.00 87 1014.1
20260508144114 66 133 6.0 7.0 0.00 0.00 0.00 85 1014.2
20260508143611 65 131 4.0 5.0 0.00 0.00 0.00 86 1014.2
20260508143108 66 121 4.0 5.0 0.00 0.00 0.00 85 1014.3
20260508142604 65 149 0.0 2.0 0.00 0.00 0.00 86 1014.3
20260508142101 65 160 1.0 2.0 0.00 0.00 0.00 87 1014.5
20260508141558 65 150 2.0 3.0 0.00 0.00 0.00 86 1014.6
20260508141055 65 154 0.0 0.0 0.00 0.00 0.00 87 1014.5
20260508140553 65 164 2.0 3.0 0.00 0.00 0.00 86 1014.6
20260508140049 66 141 0.0 2.0 0.00 0.00 0.00 86 1014.3
20260508135544 65 150 0.0 0.0 0.00 0.00 0.00 87 1014.4
20260508135041 64 152 1.0 2.0 0.00 0.00 0.00 86 1014.2
20260508134538 64 137 4.0 5.0 0.00 0.00 0.00 87 1014.3
20260508134035 64 97 3.0 3.0 0.00 0.00 0.00 87 1014.3
20260508133532 64 135 3.0 3.0 0.00 0.00 0.00 88 1014.3
20260508133029 64 120 2.0 3.0 0.00 0.00 0.00 89 1014.2
20260508132527 63 143 1.0 2.0 0.00 0.00 0.00 90 1014.4
20260508132023 62 148 0.0 0.0 0.00 0.00 0.00 91 1014.4
20260508131518 62 141 3.0 3.0 0.00 0.00 0.00 91 1014.4
20260508131015 62 127 2.0 3.0 0.00 0.00 0.00 91 1014.4
20260508130513 62 121 2.0 3.0 0.00 0.00 0.00 91 1014.6
20260508130009 61 156 2.0 5.0 0.00 0.00 0.00 92 1014.4
20260508125505 61 163 2.0 2.0 0.00 0.00 0.00 92 1014.5
20260508125003 61 141 2.0 2.0 0.00 0.00 0.00 92 1014.5
20260508124500 61 139 2.0 2.0 0.00 0.00 0.00 92 1014.6
20260508123957 61 163 2.0 3.0 0.00 0.00 0.00 93 1014.7
20260508123456 61 153 0.0 0.0 0.00 0.00 0.00 93 1014.6
20260508122952 61 159 2.0 2.0 0.00 0.00 0.00 93 1014.8
20260508122449 61 160 1.0 2.0 0.00 0.00 0.00 93 1014.6
20260508121946 61 158 2.0 2.0 0.00 0.00 0.00 93 1014.4
20260508121444 61 146 2.0 2.0 0.00 0.00 0.00 93 1014.6
20260508120942 60 170 1.0 2.0 0.00 0.00 0.00 93 1014.6
20260508120439 61 158 0.0 0.0 0.00 0.00 0.00 94 1015.0
20260508115937 60 148 0.0 0.0 0.00 0.00 0.00 93 1014.8
20260508115435 60 147 0.0 0.0 0.00 0.00 0.00 93 1014.9
20260508114931 60 161 0.0 0.0 0.00 0.00 0.00 93 1015.1
20260508114428 60 161 0.0 0.0 0.00 0.00 0.00 93 1015.0
20260508113924 60 148 0.0 0.0 0.00 0.00 0.00 93 1014.9
20260508113422 60 150 0.0 0.0 0.00 0.00 0.00 93 1014.9
20260508112919 60 150 0.0 0.0 0.00 0.00 0.00 93 1014.9
20260508112416 60 143 0.0 0.0 0.00 0.00 0.00 93 1015.0
20260508111913 60 133 0.0 0.0 0.00 0.00 0.00 93 1014.8
20260508111410 60 133 0.0 0.0 0.00 0.00 0.00 93 1014.8
20260508110907 60 140 0.0 0.0 0.00 0.00 0.00 93 1015.0
20260508110405 60 142 1.0 2.0 0.00 0.00 0.00 93 1014.8
20260508105904 60 88 2.0 2.0 0.00 0.00 0.00 93 1014.8
20260508105400 60 139 0.0 0.0 0.00 0.00 0.00 93 1015.0
20260508104858 60 150 0.0 0.0 0.00 0.00 0.00 92 1015.2
20260508104355 60 143 1.0 2.0 0.00 0.00 0.00 92 1015.2
20260508103852 60 149 0.0 0.0 0.00 0.00 0.00 92 1015.3
20260508103349 60 143 0.0 0.0 0.00 0.00 0.00 92 1015.3
20260508102846 61 161 0.0 0.0 0.00 0.00 0.00 91 1015.5
20260508102344 61 146 0.0 2.0 0.00 0.00 0.00 91 1015.5
20260508101841 61 144 1.0 2.0 0.00 0.00 0.00 91 1015.6
20260508101339 61 109 3.0 5.0 0.00 0.00 0.00 90 1015.4
20260508100836 61 154 0.0 0.0 0.00 0.00 0.00 89 1015.5
20260508100335 61 149 1.0 2.0 0.00 0.00 0.00 89 1015.6
20260508095830 61 143 1.0 2.0 0.00 0.00 0.00 90 1015.5
20260508095328 61 305 4.0 5.0 0.00 0.00 0.00 90 1015.7
20260508094825 61 88 3.0 3.0 0.00 0.00 0.00 90 1015.7
20260508094322 61 202 4.0 5.0 0.00 0.00 0.00 90 1015.6
20260508093819 61 139 2.0 2.0 0.00 0.00 0.00 89 1015.4
20260508093316 61 113 3.0 3.0 0.00 0.00 0.00 89 1015.3
20260508092813 61 129 3.0 3.0 0.00 0.00 0.00 89 1015.2
20260508092313 61 137 0.0 0.0 0.00 0.00 0.00 89 1015.1
20260508091809 61 142 0.0 0.0 0.00 0.00 0.00 89 1015.2
20260508091305 61 142 0.0 0.0 0.00 0.00 0.00 89 1015.2
20260508090803 61 145 0.0 0.0 0.00 0.00 0.00 89 1015.2
20260508090302 61 145 0.0 0.0 0.00 0.00 0.00 89 1015.2
20260508085757 61 145 0.0 0.0 0.00 0.00 0.00 88 1014.8
20260508085254 61 147 0.0 0.0 0.00 0.00 0.00 88 1014.8
20260508084749 61 144 0.0 0.0 0.00 0.00 0.00 88 1014.7
20260508084248 61 146 0.0 0.0 0.00 0.00 0.00 89 1014.6
20260508083745 61 76 0.0 0.0 0.00 0.00 0.00 88 1014.5
20260508083242 60 144 0.0 0.0 0.00 0.00 0.00 89 1014.7